Location: Wyoming Infrared Observatory
(41.0971°N, 105.9765°W)
Time: 15:47:30
(UTC-07:00)

Amateur Radio Satellites - All Passes

Search period start: 27 February 2017 15:17
Search period end: 28 February 2017 15:17
Location: Wyoming Infrared Observatory, 41.0971°N, 105.9765°W

Satellite Date Start Highest point End Downlink Frequencies (MHz)
Time Altitude Azimuth
NO-84 27 Feb 15:27:30 15:30:07 25° 128° (SE) 15:32:56 435.350 FM
BEESAT 2 27 Feb 15:39:02 15:42:49 38° 244° (WSW) 15:46:33 435.950
ITUPSAT 1 27 Feb 15:50:24 15:54:40 33° 292° (WNW) 15:58:55 437.325
CUTE-I 27 Feb 15:52:06 15:53:29 11° 57° (ENE) 15:54:53 437.470
MOZHAYETS 4 27 Feb 15:53:30 15:58:07 73° 285° (WNW) 16:02:40
BEESAT 27 Feb 15:55:24 15:59:31 29° 293° (WNW) 16:03:35 436.000
ITAMSAT 1 27 Feb 16:04:43 16:06:53 13° 270° (W) 16:09:04 435.822/435.867
KKS-1 27 Feb 16:06:13 16:10:23 37° 98° (E) 16:14:30 437.445
PCSat 27 Feb 16:17:35 16:22:50 50° 304° (NW) 16:28:08 145.827
LilacSat-2 27 Feb 16:23:54 16:26:15 16° 66° (ENE) 16:28:37 437.200
AO-7 27 Feb 16:27:55 16:33:54 21° 268° (W) 16:39:57 .
STARS 27 Feb 16:33:14 16:37:13 32° 97° (E) 16:41:11 437.465
DOVE 4 27 Feb 16:37:11 16:40:34 25° 68° (ENE) 16:44:00 437.250
RS-15 27 Feb 16:57:36 17:09:27 76° 117° (ESE) 17:21:47 29.354- 29.394
CUBESAT XI-V 27 Feb 16:59:37 17:04:15 89° 116° (ESE) 17:08:50 437.345
NO-84 27 Feb 17:04:44 17:07:40 30° 328° (NNW) 17:10:51 435.350 FM
KAITUO 1B 27 Feb 17:07:41 17:11:13 38° 73° (ENE) 17:14:48 145.475/437.950
XW-2F 27 Feb 17:16:32 17:20:18 60° 75° (ENE) 17:24:07 145.980 - 146.000
XW-2D 27 Feb 17:22:44 17:26:34 78° 76° (ENE) 17:30:27 145.860 - 145.880
CUTE-I 27 Feb 17:27:18 17:32:37 79° 75° (ENE) 17:38:00 437.470
XW-2B 27 Feb 17:27:51 17:31:41 87° 84° (E) 17:35:34 145.730 - 145.750
XW-2C 27 Feb 17:36:37 17:40:27 72° 258° (WSW) 17:44:20 145.795 - 145.815
NUDT-PHONESAT 27 Feb 17:39:10 17:42:55 83° 256° (WSW) 17:46:43 437.300
KKS-1 27 Feb 17:43:18 17:46:41 21° 294° (WNW) 17:50:04 437.445
M-CUBED/EXP-1 PRIME 27 Feb 17:43:33 17:47:26 78° 108° (ESE) 17:51:37 437.505
CUTE 1.7 + AOD 2 27 Feb 17:44:50 17:47:25 16° 65° (ENE) 17:50:00 437.475
LilacSat-2 27 Feb 17:56:35 18:00:13 38° 262° (W) 18:03:52 437.200
PCSat 27 Feb 18:06:44 18:07:34 10° 326° (NW) 18:08:24 145.827
STARS 27 Feb 18:09:50 18:13:23 24° 293° (WNW) 18:16:56 437.465
HO-68 27 Feb 18:10:42 18:17:33 51° 67° (ENE) 18:24:25 435.675
XW-2A 27 Feb 18:11:06 18:14:17 38° 73° (ENE) 18:17:30 145.665 - 145.685
DOVE 4 27 Feb 18:14:45 18:18:12 25° 265° (W) 18:21:43 437.250
AAUSAT CUBESAT 2 27 Feb 18:19:32 18:21:08 12° 63° (ENE) 18:22:45 437.432
STRAND 1 27 Feb 18:28:16 18:31:58 19° 93° (E) 18:35:37 437.568
CUBEBUG 2 27 Feb 18:29:22 18:32:53 23° 66° (ENE) 18:36:30 437.445
SEEDS 27 Feb 18:35:34 18:39:26 36° 71° (ENE) 18:43:19 437.485
KAITUO 1B 27 Feb 18:43:20 18:45:25 14° 268° (W) 18:47:30 145.475/437.950
NO-84 27 Feb 18:45:15 18:46:21 11° 350° (N) 18:47:28 435.350 FM
UWE-3 27 Feb 19:00:39 19:04:34 30° 69° (ENE) 19:08:35 435.000/436.395/437.385
CUTE-I 27 Feb 19:10:59 19:13:15 13° 271° (W) 19:15:33 437.470
YUBILEINY 27 Feb 19:11:42 19:15:51 14° 58° (ENE) 19:20:00 435.215
RS-15 27 Feb 19:12:02 19:23:09 40° 323° (NW) 19:34:36 29.354- 29.394
ZACube-1 27 Feb 19:15:49 19:19:33 26° 68° (ENE) 19:23:21 437.345
CUTE 1.7 + AOD 2 27 Feb 19:18:45 19:22:52 46° 261° (W) 19:27:00 437.475
XW-2A 27 Feb 19:46:20 19:47:16 11° 269° (W) 19:48:12 145.665 - 145.685
AAUSAT CUBESAT 2 27 Feb 19:51:59 19:56:05 60° 259° (W) 20:00:12 437.432
HO-68 27 Feb 19:59:17 20:05:28 31° 264° (W) 20:11:42 435.675
AO-73 27 Feb 20:01:48 20:06:15 74° 76° (ENE) 20:10:48 145.935
CUBEBUG 2 27 Feb 20:05:12 20:09:17 35° 264° (W) 20:13:31 437.445
Oscar 11 27 Feb 20:05:15 20:09:35 70° 76° (ENE) 20:13:56 .
STRAND 1 27 Feb 20:06:25 20:11:23 50° 289° (WNW) 20:16:20 437.568
SEEDS 27 Feb 20:12:14 20:15:14 19° 267° (W) 20:18:14 437.485
NO-84 27 Feb 20:24:11 20:25:29 11° 11° (NNE) 20:26:49 435.350 FM
SO-50 27 Feb 20:27:50 20:31:07 19° 111° (ESE) 20:34:21 436.795
UWE-3 27 Feb 20:37:15 20:40:59 26° 266° (W) 20:44:51 435.000/436.395/437.385
ZACube-1 27 Feb 20:51:46 20:55:42 30° 265° (W) 20:59:43 437.345
DELFI C3 27 Feb 21:00:16 21:04:14 88° 267° (W) 21:08:11 145.870
YUBILEINY 27 Feb 21:05:44 21:14:28 71° 80° (E) 21:23:06 435.215
O/OREOS (USA 219) 27 Feb 21:06:09 21:09:06 17° 100° (E) 21:12:03 437.305
TIGRISAT 27 Feb 21:12:01 21:15:01 17° 91° (E) 21:17:58 435.000
UNISAT 6 27 Feb 21:12:24 21:15:38 18° 92° (E) 21:18:49 437.425
RS-15 27 Feb 21:31:24 21:40:34 23° 357° (N) 21:49:43 29.354- 29.394
FO-29 27 Feb 21:40:09 21:45:59 24° 89° (E) 21:51:21 435.910
AO-73 27 Feb 21:42:18 21:43:00 10° 272° (W) 21:43:42 145.935
Oscar 11 27 Feb 21:45:52 21:46:10 10° 271° (W) 21:46:28 .
PRISM 27 Feb 21:46:13 21:50:19 84° 284° (WNW) 21:54:24 437.425
NO-84 27 Feb 22:00:43 22:04:13 29° 31° (NNE) 22:07:55 435.350 FM
SO-50 27 Feb 22:06:40 22:11:13 50° 307° (NW) 22:15:43 436.795
LO-87 27 Feb 22:26:44 22:30:14 64° 259° (W) 22:33:46 145.935 - 145.965
ESTCUBE 1 27 Feb 22:29:34 22:34:01 62° 74° (ENE) 22:38:29 437.505/2401.250
SPROUT 27 Feb 22:31:05 22:33:48 17° 65° (ENE) 22:36:32 437.525
VELOX 1 27 Feb 22:43:18 22:47:03 28° 68° (ENE) 22:50:48 145.980
O/OREOS (USA 219) 27 Feb 22:43:50 22:48:06 43° 297° (WNW) 22:52:26 437.305
50 SAT 27 Feb 22:44:41 22:46:50 16° 67° (ENE) 22:48:59 437.505
TIGRISAT 27 Feb 22:47:25 22:51:58 49° 288° (WNW) 22:56:26 435.000
UNISAT 6 27 Feb 22:48:04 22:52:33 45° 288° (WNW) 22:56:57 437.425
DUCHIFAT 1 27 Feb 22:58:52 23:01:39 17° 93° (E) 23:04:24 145.980
YUBILEINY 27 Feb 23:03:53 23:10:23 24° 280° (W) 23:16:51 435.215
EO-79 27 Feb 23:12:19 23:16:02 28° 96° (E) 23:19:44 145.935-145.965
AIST 2D 27 Feb 23:17:52 23:21:23 58° 100° (E) 23:24:52 435.315
PCSat 27 Feb 23:22:44 23:26:53 22° 46° (NE) 23:31:00 145.827
FO-29 27 Feb 23:24:06 23:31:36 65° 289° (WNW) 23:38:18 435.910
NANOSAT C BR1 27 Feb 23:27:15 23:31:15 38° 98° (E) 23:35:14 145.865
POLYITAN 1 27 Feb 23:30:27 23:34:36 45° 99° (E) 23:38:43 437.675
QB50P2 27 Feb 23:33:30 23:37:44 53° 100° (E) 23:41:54 145.880/145.840
NO-84 27 Feb 23:38:05 23:42:04 49° 227° (SW) 23:46:17 435.350 FM
BUGSAT 1 27 Feb 23:44:01 23:47:00 18° 93° (E) 23:49:57 437.445
RS-15 27 Feb 23:47:28 23:58:25 34° 32° (NNE) 00:09:02 29.354- 29.394
DX 1 28 Feb 00:00:45 00:05:04 88° 77° (ENE) 00:09:25 434.975-435.025
SPROUT 28 Feb 00:05:18 00:09:22 44° 261° (W) 00:13:28 437.525
UKube-1 28 Feb 00:06:59 00:11:15 74° 75° (ENE) 00:15:34 .
ESTCUBE 1 28 Feb 00:09:20 00:11:13 12° 270° (W) 00:13:06 437.505/2401.250
50 SAT 28 Feb 00:16:36 00:19:42 29° 263° (W) 00:22:48 437.505
Oscar 19 28 Feb 00:17:18 00:19:39 13° 90° (E) 00:22:00 437.125/150
VELOX 1 28 Feb 00:19:48 00:23:27 26° 264° (W) 00:27:07 145.980
DUCHIFAT 1 28 Feb 00:33:28 00:37:29 41° 288° (WNW) 00:41:29 145.980
EO-79 28 Feb 00:48:10 00:51:41 25° 292° (WNW) 00:55:10 145.935-145.965
NANOSAT C BR1 28 Feb 01:03:40 01:06:41 19° 294° (WNW) 01:09:42 145.865
PCSat 28 Feb 01:05:21 01:10:45 65° 245° (WSW) 01:16:06 145.827
POLYITAN 1 28 Feb 01:07:18 01:10:00 17° 295° (WNW) 01:12:42 437.675
QB50P2 28 Feb 01:10:45 01:13:03 14° 296° (WNW) 01:15:22 145.880/145.840
FO-29 28 Feb 01:11:42 01:15:01 14° 309° (NW) 01:18:13 435.910
BUGSAT 1 28 Feb 01:18:32 01:22:28 37° 289° (WNW) 01:26:23 437.445
ITUPSAT 1 28 Feb 01:19:20 01:23:32 31° 68° (ENE) 01:27:45 437.325
MOZHAYETS 4 28 Feb 01:21:19 01:22:55 12° 61° (ENE) 01:24:31
BEESAT 28 Feb 01:23:45 01:28:04 35° 69° (ENE) 01:32:25 436.000
Gurwin Techsat 1B 28 Feb 01:24:00 01:28:47 33° 97° (E) 01:33:33 435.225
Oscar 19 28 Feb 01:54:22 01:59:29 72° 286° (WNW) 02:04:35 437.125/150
RS-15 28 Feb 02:00:23 02:12:48 89° 61° (ENE) 02:24:38 29.354- 29.394
AO-85 28 Feb 02:11:50 02:13:41 12° 110° (ESE) 02:15:29 145.980
AO-7 28 Feb 02:34:42 02:41:20 26° 94° (E) 02:47:54 .
ITAMSAT 1 28 Feb 02:35:06 02:39:32 27° 95° (E) 02:43:54 435.822/435.867
MOZHAYETS 4 28 Feb 02:54:45 02:59:24 79° 258° (WSW) 03:04:05
ITUPSAT 1 28 Feb 02:57:12 03:01:19 28° 264° (W) 03:05:28 437.325
BEESAT 28 Feb 03:01:58 03:05:53 25° 265° (W) 03:09:49 436.000
Gurwin Techsat 1B 28 Feb 03:03:59 03:08:39 32° 293° (WNW) 03:13:18 435.225
KKS-1 28 Feb 03:04:06 03:08:04 34° 69° (ENE) 03:12:04 437.445
STARS 28 Feb 03:29:46 03:33:30 28° 68° (ENE) 03:37:16 437.465
AO-85 28 Feb 03:49:07 03:53:39 69° 304° (NW) 03:57:52 145.980
CUBESAT XI-V 28 Feb 04:02:23 04:07:03 84° 76° (ENE) 04:11:42 437.345
ITAMSAT 1 28 Feb 04:14:15 04:19:02 37° 292° (WNW) 04:23:48 435.822/435.867
RS-15 28 Feb 04:14:45 04:23:34 24° 260° (W) 04:32:11 29.354- 29.394
AO-7 28 Feb 04:26:26 04:34:41 69° 293° (WNW) 04:42:52 .
M-CUBED/EXP-1 PRIME 28 Feb 04:30:17 04:33:32 83° 252° (WSW) 04:36:49 437.505
KKS-1 28 Feb 04:41:15 04:44:41 22° 265° (W) 04:48:09 437.445
BEESAT 3 28 Feb 04:45:06 04:48:25 27° 114° (ESE) 04:51:48 437.485
SO-50 28 Feb 04:58:20 05:01:38 19° 43° (NE) 05:04:53 436.795
STARS 28 Feb 05:06:09 05:09:47 26° 264° (W) 05:13:28 437.465
XW-2C 28 Feb 05:11:19 05:12:45 12° 91° (E) 05:14:12 145.795 - 145.815
BEESAT 2 28 Feb 05:30:04 05:33:39 34° 115° (ESE) 05:37:18 435.950
LilacSat-2 28 Feb 05:30:16 05:33:15 21° 94° (E) 05:36:12 437.200
AO-85 28 Feb 05:34:03 05:34:45 10° 322° (NW) 05:35:26 145.980
STRAND 1 28 Feb 05:43:49 05:48:10 29° 66° (ENE) 05:52:32 437.568
CUTE-I 28 Feb 05:44:46 05:49:33 31° 96° (E) 05:54:16 437.470
DOVE 4 28 Feb 06:11:32 06:16:21 76° 102° (ESE) 06:21:26 437.250
KAITUO 1B 28 Feb 06:12:44 06:16:27 56° 101° (E) 06:20:07 145.475/437.950
AO-7 28 Feb 06:21:21 06:25:58 16° 313° (NW) 06:30:35 .
BEESAT 3 28 Feb 06:22:36 06:25:58 27° 311° (NW) 06:29:23 437.485
XW-2F 28 Feb 06:22:50 06:26:39 88° 286° (WNW) 06:30:25 145.980 - 146.000
ISS 28 Feb 06:29:08 06:32:18 45° 138° (SE) 06:35:28 437.550
XW-2D 28 Feb 06:29:31 06:33:19 68° 283° (WNW) 06:37:04 145.860 - 145.880
XW-2B 28 Feb 06:34:39 06:38:26 60° 285° (WNW) 06:42:10 145.730 - 145.750
SO-50 28 Feb 06:38:01 06:42:26 57° 242° (WSW) 06:46:49 436.795
XW-2C 28 Feb 06:43:33 06:47:13 46° 287° (WNW) 06:50:51 145.795 - 145.815
NUDT-PHONESAT 28 Feb 06:43:45 06:47:26 56° 286° (WNW) 06:51:06 437.300
Tancredo 1 28 Feb 06:46:34 06:49:48 73° 142° (SE) 06:53:03 437.200
CUTE 1.7 + AOD 2 28 Feb 07:03:50 07:07:29 28° 96° (E) 07:11:07 437.475
LilacSat-2 28 Feb 07:04:16 07:07:29 25° 290° (WNW) 07:10:39 437.200
XW-2A 28 Feb 07:05:38 07:08:58 42° 99° (E) 07:12:14 145.665 - 145.685
BEESAT 2 28 Feb 07:08:19 07:11:30 23° 313° (NW) 07:14:44 435.950
O/OREOS (USA 219) 28 Feb 07:14:33 07:18:45 34° 61° (ENE) 07:22:57 437.305
STRAND 1 28 Feb 07:22:31 07:27:12 35° 263° (W) 07:31:55 437.568
CUTE-I 28 Feb 07:24:45 07:29:33 34° 293° (WNW) 07:34:20 437.470
HO-68 28 Feb 07:25:41 07:32:40 53° 101° (E) 07:39:36 435.675
AAUSAT CUBESAT 2 28 Feb 07:34:49 07:37:52 20° 94° (E) 07:40:54 437.432
KAITUO 1B 28 Feb 07:49:09 07:49:58 11° 296° (WNW) 07:50:46 145.475/437.950
DOVE 4 28 Feb 07:51:18 07:53:29 13° 297° (WNW) 07:55:44 437.250
AO-73 28 Feb 07:51:25 07:53:57 15° 90° (E) 07:56:27 145.935
FO-29 28 Feb 07:54:15 07:57:35 14° 51° (NE) 08:00:59 435.910
Oscar 11 28 Feb 07:54:20 07:56:18 13° 90° (E) 07:58:17 .
SEEDS 28 Feb 07:54:31 07:58:40 72° 101° (E) 08:02:49 437.485
CUBEBUG 2 28 Feb 07:55:30 08:00:09 50° 99° (E) 08:04:42 437.445
ISS 28 Feb 08:06:00 08:08:52 27° 336° (NNW) 08:11:45 437.550
TIGRISAT 28 Feb 08:11:03 08:13:40 15° 63° (ENE) 08:16:18 435.000
UNISAT 6 28 Feb 08:11:31 08:14:21 17° 64° (ENE) 08:17:15 437.425
YUBILEINY 28 Feb 08:14:51 08:19:20 15° 75° (ENE) 08:23:50 435.215
Tancredo 1 28 Feb 08:23:47 08:26:21 21° 340° (NNW) 08:28:55 437.200
UWE-3 28 Feb 08:25:55 08:30:35 66° 101° (E) 08:35:07 435.000/436.395/437.385
PRISM 28 Feb 08:35:02 08:39:04 66° 75° (ENE) 08:43:07 437.425
ZACube-1 28 Feb 08:39:31 08:44:00 54° 100° (E) 08:48:20 437.345
DELFI C3 28 Feb 08:39:36 08:40:53 11° 91° (E) 08:42:09 145.870
CUTE 1.7 + AOD 2 28 Feb 08:39:49 08:43:12 24° 292° (WNW) 08:46:33 437.475
XW-2A 28 Feb 08:40:13 08:41:19 11° 295° (WNW) 08:42:27 145.665 - 145.685
O/OREOS (USA 219) 28 Feb 08:54:19 08:57:57 23° 258° (WSW) 09:01:35 437.305
AAUSAT CUBESAT 2 28 Feb 09:09:44 09:13:23 31° 289° (WNW) 09:17:01 437.432
HO-68 28 Feb 09:13:59 09:20:03 31° 299° (WNW) 09:26:05 435.675
AO-73 28 Feb 09:26:06 09:30:30 51° 287° (WNW) 09:34:46 145.935
Oscar 11 28 Feb 09:28:33 09:32:46 54° 286° (WNW) 09:36:58 .
SEEDS 28 Feb 09:33:06 09:33:45 10° 298° (WNW) 09:34:24 437.485
CUBEBUG 2 28 Feb 09:33:08 09:36:19 18° 296° (WNW) 09:39:29 437.445
FO-29 28 Feb 09:33:49 09:40:57 62° 70° (ENE) 09:48:40 435.910
ISS 28 Feb 09:44:25 09:46:10 13° 356° (N) 09:47:55 437.550
TIGRISAT 28 Feb 09:45:22 09:49:49 58° 260° (W) 09:54:24 435.000
UNISAT 6 28 Feb 09:46:11 09:50:36 52° 260° (W) 09:55:09 437.425
DUCHIFAT 1 28 Feb 09:51:33 09:53:30 13° 63° (ENE) 09:55:27 145.980
AIST 2D 28 Feb 09:52:42 09:55:25 21° 69° (ENE) 09:58:09 435.315
Tancredo 1 28 Feb 10:01:56 10:03:32 13° 0° (N) 10:05:06 437.200
UWE-3 28 Feb 10:04:08 10:06:26 14° 298° (WNW) 10:08:43 435.000/436.395/437.385
EO-79 28 Feb 10:04:54 10:08:07 22° 67° (ENE) 10:11:22 145.935-145.965
YUBILEINY 28 Feb 10:05:50 10:14:39 81° 95° (E) 10:23:28 435.215
DELFI C3 28 Feb 10:12:09 10:15:58 51° 286° (WNW) 10:19:46 145.870
ZACube-1 28 Feb 10:17:07 10:19:47 16° 296° (WNW) 10:22:26 437.345
NANOSAT C BR1 28 Feb 10:19:16 10:22:51 28° 69° (ENE) 10:26:29 145.865
POLYITAN 1 28 Feb 10:22:48 10:26:37 33° 70° (ENE) 10:30:29 437.675
ESTCUBE 1 28 Feb 10:23:53 10:25:55 13° 90° (E) 10:27:57 437.505/2401.250
QB50P2 28 Feb 10:25:47 10:29:44 38° 71° (ENE) 10:33:42 145.880/145.840
BUGSAT 1 28 Feb 10:34:45 10:36:39 13° 63° (ENE) 10:38:34 437.445
AO-85 28 Feb 10:42:05 10:43:24 11° 39° (NE) 10:44:43 145.980
FO-29 28 Feb 11:20:23 11:26:24 28° 269° (W) 11:32:50 435.910
ISS 28 Feb 11:21:14 11:23:37 18° 16° (NNE) 11:26:01 437.550
DUCHIFAT 1 28 Feb 11:24:32 11:28:40 58° 260° (W) 11:32:51 145.980
AIST 2D 28 Feb 11:25:41 11:28:32 22° 265° (W) 11:31:25 435.315
LO-87 28 Feb 11:27:08 11:30:38 50° 286° (WNW) 11:34:09 145.935 - 145.965
Oscar 19 28 Feb 11:33:31 11:37:17 21° 64° (ENE) 11:41:02 437.125/150
Tancredo 1 28 Feb 11:38:08 11:40:43 21° 20° (NNE) 11:43:16 437.200
EO-79 28 Feb 11:39:53 11:43:41 32° 263° (W) 11:47:32 145.935-145.965
50 SAT 28 Feb 11:41:54 11:44:08 16° 94° (E) 11:46:22 437.505
DX 1 28 Feb 11:50:14 11:52:47 15° 92° (E) 11:55:19 434.975-435.025
SPROUT 28 Feb 11:51:04 11:54:53 30° 96° (E) 11:58:40 437.525
NANOSAT C BR1 28 Feb 11:55:05 11:58:32 24° 265° (W) 12:02:01 145.865
UKube-1 28 Feb 11:56:03 11:57:44 12° 91° (E) 11:59:25 .
ESTCUBE 1 28 Feb 11:58:41 12:03:06 58° 286° (WNW) 12:07:29 437.505/2401.250
POLYITAN 1 28 Feb 11:59:17 12:02:28 20° 266° (W) 12:05:41 437.675
QB50P2 28 Feb 12:02:47 12:05:40 18° 267° (W) 12:08:34 145.880/145.840
YUBILEINY 28 Feb 12:06:02 12:12:29 22° 296° (WNW) 12:18:58 435.215
BUGSAT 1 28 Feb 12:07:33 12:11:31 54° 259° (W) 12:15:35 437.445
VELOX 1 28 Feb 12:08:48 12:13:10 57° 101° (E) 12:17:32 145.980
AO-85 28 Feb 12:20:26 12:24:22 86° 232° (SW) 12:28:20 145.980
Gurwin Techsat 1B 28 Feb 12:44:49 12:49:58 52° 71° (ENE) 12:55:07 435.225
ISS 28 Feb 12:57:13 13:00:31 76° 35° (NE) 13:03:47 437.550
BEESAT 3 28 Feb 13:01:56 13:04:52 19° 45° (NE) 13:07:48 437.485
Oscar 19 28 Feb 13:11:15 13:16:14 50° 260° (W) 13:21:13 437.125/150
Tancredo 1 28 Feb 13:14:01 13:17:14 70° 220° (SW) 13:20:26 437.200
50 SAT 28 Feb 13:14:18 13:17:17 27° 289° (WNW) 13:20:15 437.505
DX 1 28 Feb 13:25:01 13:29:13 48° 288° (WNW) 13:33:24 434.975-435.025
SPROUT 28 Feb 13:27:11 13:30:39 24° 292° (WNW) 13:34:06 437.525
UKube-1 28 Feb 13:29:52 13:34:08 59° 287° (WNW) 13:38:22 .
AO-7 28 Feb 13:33:26 13:40:53 38° 59° (ENE) 13:48:20 .
VELOX 1 28 Feb 13:46:46 13:49:08 14° 297° (WNW) 13:51:30 145.980
BEESAT 2 28 Feb 13:47:51 13:51:08 23° 47° (NE) 13:54:24 435.950
ITAMSAT 1 28 Feb 13:52:46 13:57:37 41° 69° (ENE) 14:02:32 435.822/435.867
PCSat 28 Feb 14:05:53 14:09:08 16° 104° (ESE) 14:12:24 145.827
RS-15 28 Feb 14:20:46 14:23:57 11° 92° (E) 14:27:10 29.354- 29.394
Gurwin Techsat 1B 28 Feb 14:26:26 14:30:12 20° 268° (W) 14:34:00 435.225
ISS 28 Feb 14:35:13 14:36:33 12° 231° (SW) 14:37:52 437.550
BEESAT 3 28 Feb 14:38:51 14:42:42 45° 243° (WSW) 14:46:30 437.485
MOZHAYETS 4 28 Feb 14:50:25 14:54:10 24° 94° (E) 14:57:51
ITUPSAT 1 28 Feb 14:56:47 15:01:36 74° 103° (ESE) 15:06:22 437.325
NO-84 28 Feb 14:57:30 14:59:51 20° 127° (SE) 15:02:20 435.350 FM
BEESAT 28 Feb 15:00:54 15:05:44 83° 104° (ESE) 15:10:30 436.000
